| time (UTC) | temp C | wind direction | speed KPH | gust KPH | rain 1hr cm | rain 24hr cm | rain mn cm | humidity % | barometer mb |
| 20260507144505 | 13 | 203 | 3.2 | 12.9 | 0.00 | 0.03 | 0.00 | 49 | 1011.9 |
| 20260507143119 | 13 | 143 | 3.2 | 8.0 | 0.00 | 0.03 | 0.00 | 49 | 1011.9 |
| 20260507141533 | 12 | 142 | 4.8 | 9.7 | 0.00 | 0.08 | 0.03 | 47 | 1012.2 |
| 20260507140028 | 12 | 291 | 3.2 | 12.9 | 0.00 | 0.08 | 0.03 | 48 | 1012.6 |
| 20260507134558 | 12 | 353 | 1.6 | 4.8 | 0.00 | 0.08 | 0.03 | 51 | 1012.6 |
| 20260507133057 | 11 | 152 | 1.6 | 11.3 | 0.00 | 0.08 | 0.03 | 52 | 1012.7 |
| 20260507131526 | 11 | 61 | 3.2 | 6.4 | 0.00 | 0.18 | 0.03 | 55 | 1012.8 |
| 20260507130028 | 10 | 43 | 3.2 | 6.4 | 0.00 | 0.18 | 0.03 | 60 | 1012.8 |
| 20260507124603 | 10 | 63 | 3.2 | 4.8 | 0.00 | 0.18 | 0.03 | 61 | 1012.8 |
| 20260507123054 | 8 | 60 | 3.2 | 4.8 | 0.00 | 0.18 | 0.03 | 64 | 1013.0 |
| 20260507121552 | 8 | 93 | 1.6 | 3.2 | 0.00 | 0.23 | 0.03 | 66 | 1013.1 |
| 20260507120053 | 7 | 241 | 0.0 | 3.2 | 0.00 | 0.23 | 0.03 | 73 | 1013.1 |
| 20260507114606 | 7 | 240 | 0.0 | 1.6 | 0.00 | 0.23 | 0.03 | 77 | 1013.0 |
| 20260507113105 | 7 | 240 | 0.0 | 0.0 | 0.00 | 0.23 | 0.03 | 77 | 1012.9 |
| 20260507111549 | 6 | 240 | 0.0 | 1.6 | 0.00 | 0.33 | 0.03 | 82 | 1012.8 |
| 20260507110044 | 4 | 240 | 0.0 | 1.6 | 0.00 | 0.33 | 0.03 | 84 | 1012.4 |
| 20260507104544 | 3 | 240 | 0.0 | 1.6 | 0.00 | 0.33 | 0.03 | 84 | 1012.4 |
| 20260507103048 | 4 | 240 | 0.0 | 1.6 | 0.00 | 0.33 | 0.03 | 82 | 1012.2 |
| 20260507101513 | 5 | 240 | 0.0 | 1.6 | 0.00 | 0.33 | 0.03 | 80 | 1012.1 |
| 20260507100004 | 5 | 240 | 0.0 | 1.6 | 0.00 | 0.33 | 0.03 | 78 | 1012.1 |
| 20260507094533 | 6 | 240 | 0.0 | 1.6 | 0.00 | 0.33 | 0.03 | 73 | 1012.0 |
| 20260507093028 | 7 | 240 | 0.0 | 0.0 | 0.00 | 0.33 | 0.03 | 69 | 1011.9 |
| 20260507091610 | 7 | 240 | 0.0 | 1.6 | 0.00 | 0.33 | 0.03 | 64 | 1011.8 |
| 20260507090049 | 8 | 240 | 0.0 | 3.2 | 0.00 | 0.33 | 0.03 | 62 | 1011.6 |
| 20260507084516 | 8 | 340 | 0.0 | 9.7 | 0.00 | 0.33 | 0.03 | 61 | 1011.5 |
| 20260507083014 | 8 | 290 | 3.2 | 8.0 | 0.00 | 0.33 | 0.03 | 60 | 1011.7 |
| 20260507081512 | 8 | 259 | 0.0 | 4.8 | 0.00 | 0.33 | 0.03 | 61 | 1011.8 |
| 20260507080012 | 9 | 304 | 0.0 | 4.8 | 0.00 | 0.33 | 0.03 | 61 | 1011.7 |
| 20260507074509 | 9 | 288 | 1.6 | 4.8 | 0.00 | 0.33 | 0.03 | 61 | 1011.6 |
| 20260507073007 | 9 | 265 | 0.0 | 3.2 | 0.00 | 0.33 | 0.03 | 61 | 1011.5 |
| 20260507071535 | 9 | 290 | 1.6 | 8.0 | 0.00 | 0.33 | 0.03 | 60 | 1011.7 |
| 20260507071505 | 9 | 290 | 1.6 | 11.3 | 0.00 | 0.33 | 0.03 | 60 | 1011.7 |
| 20260507070035 | 10 | 292 | 1.6 | 11.3 | 0.00 | 0.33 | 0.03 | 59 | 1011.7 |
| 20260507064502 | 10 | 250 | 3.2 | 9.7 | 0.00 | 0.33 | 0.03 | 59 | 1011.8 |
| 20260507063059 | 10 | 225 | 1.6 | 8.0 | 0.00 | 0.33 | 0.03 | 59 | 1011.8 |
| 20260507063001 | 10 | 264 | 0.0 | 6.4 | 0.00 | 0.33 | 0.03 | 60 | 1011.9 |
| 20260507061556 | 10 | 285 | 3.2 | 8.0 | 0.00 | 0.33 | 0.03 | 59 | 1011.9 |
| 20260507060101 | 10 | 198 | 1.6 | 9.7 | 0.00 | 0.33 | 0.03 | 61 | 1011.8 |
| 20260507054557 | 10 | 287 | 1.6 | 4.8 | 0.00 | 0.33 | 0.03 | 64 | 1011.9 |
| 20260507053053 | 10 | 240 | 3.2 | 9.7 | 0.00 | 0.33 | 0.03 | 63 | 1011.8 |
| 20260507051549 | 10 | 297 | 1.6 | 8.0 | 0.00 | 0.33 | 0.03 | 66 | 1012.1 |
| 20260507050047 | 10 | 246 | 0.0 | 6.4 | 0.00 | 0.33 | 0.03 | 69 | 1012.1 |
| 20260507044559 | 10 | 233 | 1.6 | 8.0 | 0.00 | 0.33 | 0.03 | 68 | 1012.1 |
| 20260507043059 | 11 | 286 | 4.8 | 9.7 | 0.00 | 0.33 | 0.03 | 71 | 1012.0 |
| 20260507041540 | 11 | 259 | 1.6 | 9.7 | 0.00 | 0.33 | 0.03 | 74 | 1011.9 |
| 20260507040040 | 11 | 224 | 1.6 | 6.4 | 0.00 | 0.33 | 0.03 | 74 | 1012.0 |
| 20260507034537 | 11 | 148 | 1.6 | 9.7 | 0.00 | 0.33 | 0.03 | 74 | 1011.9 |
| 20260507033035 | 11 | 238 | 0.0 | 8.0 | 0.00 | 0.33 | 0.03 | 75 | 1011.8 |
| 20260507031503 | 11 | 204 | 0.0 | 6.4 | 0.00 | 0.33 | 0.03 | 76 | 1011.6 |
| 20260507030007 | 11 | 240 | 0.0 | 3.2 | 0.00 | 0.33 | 0.03 | 77 | 1011.6 |
| 20260507024559 | 11 | 138 | 1.6 | 8.0 | 0.00 | 0.33 | 0.03 | 77 | 1011.6 |
| 20260507023110 | 11 | 129 | 0.0 | 4.8 | 0.00 | 0.33 | 0.03 | 77 | 1011.4 |
| 20260507021557 | 11 | 289 | 0.0 | 1.6 | 0.00 | 0.33 | 0.03 | 77 | 1010.9 |
| 20260507014556 | 11 | 194 | 0.0 | 8.0 | 0.00 | 0.33 | 0.03 | 76 | 1010.9 |
| 20260507013052 | 11 | 321 | 0.0 | 3.2 | 0.00 | 0.33 | 0.03 | 77 | 1010.8 |
| 20260507011551 | 11 | 309 | 0.0 | 4.8 | 0.00 | 0.33 | 0.03 | 77 | 1011.3 |
| 20260507010051 | 12 | 346 | 0.0 | 1.6 | 0.00 | 0.33 | 0.03 | 77 | 1011.3 |
| 20260507004549 | 12 | 262 | 1.6 | 9.7 | 0.00 | 0.33 | 0.03 | 78 | 1011.4 |
| 20260507003018 | 12 | 258 | 1.6 | 6.4 | 0.00 | 0.33 | 0.03 | 79 | 1011.2 |
| 20260507001553 | 12 | 149 | 3.2 | 9.7 | 0.00 | 0.33 | 0.03 | 80 | 1010.8 |
| 20260507001545 | 12 | 96 | 3.2 | 8.0 | 0.00 | 0.33 | 0.03 | 80 | 1010.8 |
| 20260507000015 | 12 | 124 | 1.6 | 12.9 | 0.00 | 0.33 | 0.03 | 81 | 1011.2 |
| 20260506234507 | 12 | 288 | 1.6 | 6.4 | 0.00 | 0.33 | 0.03 | 81 | 1010.5 |
| 20260506233003 | 12 | 177 | 1.6 | 12.9 | 0.00 | 0.33 | 0.03 | 82 | 1010.1 |
| 20260506231503 | 13 | 100 | 0.0 | 11.3 | 0.00 | 0.33 | 0.03 | 81 | 1009.6 |
| 20260506230048 | 13 | 217 | 0.0 | 9.7 | 0.00 | 0.33 | 0.03 | 81 | 1009.7 |
| 20260506224529 | 13 | 107 | 1.6 | 9.7 | 0.00 | 0.33 | 0.03 | 82 | 1009.7 |
| 20260506223029 | 13 | 127 | 0.0 | 8.0 | 0.00 | 0.33 | 0.03 | 82 | 1009.6 |
| 20260506221521 | 13 | 146 | 1.6 | 9.7 | 0.00 | 0.33 | 0.03 | 82 | 1009.6 |
| 20260506220018 | 13 | 115 | 1.6 | 14.5 | 0.00 | 0.33 | 0.03 | 80 | 1009.4 |
| 20260506214516 | 14 | 193 | 1.6 | 16.1 | 0.00 | 0.33 | 0.03 | 79 | 1009.1 |
| 20260506213043 | 14 | 161 | 3.2 | 16.1 | 0.00 | 0.33 | 0.03 | 79 | 1008.7 |
| 20260506211541 | 15 | 129 | 3.2 | 9.7 | 0.00 | 0.33 | 0.03 | 78 | 1008.6 |
| 20260506210051 | 15 | 157 | 3.2 | 8.0 | 0.00 | 0.33 | 0.03 | 78 | 1008.4 |
| 20260506204535 | 16 | 142 | 4.8 | 14.5 | 0.00 | 0.33 | 0.03 | 76 | 1008.0 |
| 20260506203045 | 16 | 133 | 1.6 | 17.7 | 0.00 | 0.33 | 0.03 | 79 | 1007.9 |
| 20260506201532 | 16 | 119 | 9.7 | 16.1 | 0.00 | 0.33 | 0.03 | 80 | 1007.7 |
| 20260506200011 | 16 | 137 | 4.8 | 11.3 | 0.00 | 0.33 | 0.03 | 82 | 1007.7 |
| 20260506194605 | 17 | 110 | 3.2 | 11.3 | 0.00 | 0.33 | 0.03 | 81 | 1007.6 |
| 20260506193035 | 17 | 206 | 4.8 | 16.1 | 0.00 | 0.33 | 0.03 | 78 | 1007.1 |
| 20260506191527 | 17 | 162 | 3.2 | 19.3 | 0.00 | 0.33 | 0.03 | 81 | 1007.1 |
| 20260506190054 | 17 | 120 | 3.2 | 9.7 | 0.00 | 0.33 | 0.03 | 83 | 1006.9 |
| 20260506184551 | 17 | 269 | 1.6 | 8.0 | 0.00 | 0.33 | 0.03 | 84 | 1007.0 |
| 20260506183046 | 16 | 63 | 0.0 | 6.4 | 0.00 | 0.33 | 0.03 | 88 | 1006.9 |
| 20260506181552 | 16 | 120 | 6.4 | 11.3 | 0.00 | 0.33 | 0.03 | 91 | 1006.8 |
| 20260506180044 | 16 | 94 | 8.0 | 14.5 | 0.00 | 0.33 | 0.03 | 90 | 1006.7 |
| 20260506174542 | 16 | 82 | 6.4 | 16.1 | 0.00 | 0.33 | 0.03 | 90 | 1006.7 |
| 20260506173012 | 16 | 86 | 4.8 | 11.3 | 0.00 | 0.33 | 0.03 | 91 | 1006.6 |
| 20260506171509 | 16 | 91 | 4.8 | 14.5 | 0.00 | 0.33 | 0.03 | 92 | 1006.6 |
| 20260506170043 | 15 | 115 | 9.7 | 16.1 | 0.03 | 0.33 | 0.03 | 93 | 1006.6 |
| 20260506164546 | 15 | 113 | 3.2 | 9.7 | 0.03 | 0.33 | 0.03 | 95 | 1006.6 |
| 20260506163027 | 15 | 91 | 4.8 | 9.7 | 0.03 | 0.33 | 0.03 | 95 | 1006.6 |
| 20260506161528 | 15 | 101 | 3.2 | 9.7 | 0.03 | 0.33 | 0.03 | 95 | 1006.7 |
| 20260506160024 | 15 | 110 | 3.2 | 8.0 | 0.00 | 0.30 | 0.00 | 93 | 1006.8 |
| 20260506154522 | 15 | 55 | 4.8 | 8.0 | 0.00 | 0.30 | 0.00 | 92 | 1006.6 |
| 20260506153006 | 15 | 96 | 4.8 | 8.0 | 0.00 | 0.30 | 0.00 | 92 | 1006.6 |
| 20260506151503 | 15 | 106 | 3.2 | 8.0 | 0.00 | 0.30 | 0.00 | 92 | 1006.3 |
| 20260506150048 | 15 | 97 | 1.6 | 4.8 | 0.00 | 0.30 | 0.00 | 92 | 1006.2 |